Location: Namasale
(1.5000°N, 32.6167°E)
Time: 21:56:56
(UTC+00:00)

Transit 2A - Pass Details

Date: 23 April 2021
Orbit: 602 x 957 km, 66.7° (Epoch: 11 May)

Event Time Altitude Azimuth Distance (km) Brightness Sun altitude
Rises 13:21:26 0° 14° (NNE) 3,047 9.1 36.0°
Reaches altitude 10° 13:24:41 10° 38° (NE) 2,206 8.3 35.2°
Maximum altitude 13:27:29 15° 72° (ENE) 1,956 7.8 34.5°
Drops below altitude 10° 13:30:25 10° 105° (ESE) 2,343 8.1 33.8°
Sets 13:34:01 0° 128° (SE) 3,360 8.8 32.9°
